This is the latest recevied weather packets stored in our database for station/object KN6DHD. If no packets are shown the sender has not sent any weather packets the latest 10 day(s).
| Time | Temp. | Humidity | Pressure | Rain* | Wind** | Luminosity | Snow |
|---|---|---|---|---|---|---|---|
| 1777138265 | 15° C | 75% | 1012.2 hPa | 0 mm | - | 213 W/m² | - |
| 1777137962 | 15° C | 75% | 1012 hPa | 0 mm | - | 206 W/m² | - |
| 1777137658 | 14.44° C | 76% | 1012 hPa | 0 mm | - | 177 W/m² | - |
| 1777137355 | 15° C | 76% | 1012.2 hPa | 0 mm | - | 157 W/m² | - |
| 1777137052 | 14.44° C | 76% | 1011.9 hPa | 0 mm | - | 128 W/m² | - |
| 1777136748 | 14.44° C | 76% | 1012.1 hPa | 0 mm | - | 180 W/m² | - |
| 1777136445 | 14.44° C | 78% | 1012.1 hPa | 0 mm | - | 201 W/m² | - |
| 1777136143 | 14.44° C | 78% | 1012 hPa | 0 mm | - | 165 W/m² | - |
| 1777135840 | 14.44° C | 80% | 1011.9 hPa | 0 mm | - | 145 W/m² | - |
| 1777135535 | 13.89° C | 80% | 1012 hPa | 0 mm | - | 138 W/m² | - |
| 1777135232 | 13.89° C | 83% | 1011.9 hPa | 0 mm | - | 135 W/m² | - |
| 1777134928 | 13.89° C | 84% | 1012 hPa | 0 mm | - | 185 W/m² | - |
| 1777134620 | 13.33° C | 84% | 1012 hPa | 0 mm | - | 127 W/m² | - |
| 1777134316 | 13.33° C | 84% | 1011.8 hPa | 0 mm | - | 132 W/m² | - |
| 1777134013 | 13.33° C | 84% | 1011.6 hPa | 0 mm | - | 144 W/m² | - |
| 1777133710 | 13.33° C | 84% | 1011.7 hPa | 0 mm | - | 149 W/m² | - |
| 1777133408 | 13.33° C | 85% | 1011.7 hPa | 0 mm | - | 140 W/m² | - |
| 1777133103 | 13.33° C | 85% | 1011.7 hPa | 0 mm | - | 142 W/m² | - |
| 1777132799 | 13.33° C | 85% | 1011.7 hPa | 0 mm | - | 139 W/m² | - |
| 1777132495 | 12.78° C | 86% | 1011.8 hPa | 0 mm | - | 138 W/m² | - |
| 1777132193 | 12.78° C | 86% | 1011.5 hPa | 0 mm | - | 131 W/m² | - |
| 1777131888 | 12.78° C | 87% | 1011.8 hPa | 0 mm | - | 121 W/m² | - |
| 1777131587 | 12.78° C | 87% | 1011.8 hPa | 0 mm | - | 116 W/m² | - |
| 1777131280 | 12.22° C | 88% | 1011.7 hPa | 0 mm | - | 115 W/m² | - |
| 1777130974 | 12.22° C | 89% | 1011.6 hPa | 0 mm | - | 107 W/m² | - |
* Rain latest hour (hover to see other rain measurements)
** Current wind speed in m/s (hover to see current wind gust speed)